When you browse on this site, cookies collect data to enhance your experience and personalize the content and advertising you see.
Visit our Privacy Policy to learn more. By continuing to use the site, you agree to this use of cookies and data.
  • In Hungary
  • List of Countries
  • For 7 days
  • Water Temperature
  • Weather Map
  • News
  • Weather Widgets
  • user-avatar
    Login

    Hourly Weather Smolice

    Today, 19 August, Monday

    Time Temperature Precipitation Wind Pressure Humidity
    00:00 +22°C° 0.5 mm 3 mps 744 mmHg 76%
    01:00 +21°C° 0 mm 3 mps 744 mmHg 88%
    02:00 +21°C° 0.1 mm 3 mps 744 mmHg 88%
    03:00 +21°C° 0.1 mm 3 mps 744 mmHg 88%
    04:00 +21°C° 0.1 mm 3 mps 744 mmHg 88%
    05:00 +22°C° 0 mm 3 mps 745 mmHg 86%
    06:00 +24°C° 0 mm 3 mps 745 mmHg 83%
    07:00 +24°C° 0 mm 3 mps 746 mmHg 79%
    08:00 +26°C° 0 mm 3 mps 746 mmHg 73%
    09:00 +27°C° 0 mm 3 mps 746 mmHg 66%
    10:00 +28°C° 0 mm 3 mps 747 mmHg 60%
    11:00 +28°C° 0.5 mm 3 mps 747 mmHg 60%
    12:00 +28°C° 0.5 mm 3 mps 747 mmHg 60%
    13:00 +28°C° 0.5 mm 4 mps 747 mmHg 59%
    14:00 +27°C° 0.8 mm 4 mps 747 mmHg 63%
    15:00 +26°C° 0.8 mm 4 mps 748 mmHg 67%
    16:00 +25°C° 0.8 mm 4 mps 748 mmHg 70%
    17:00 +24°C° 0 mm 3 mps 748 mmHg 75%
    18:00 +21°C° 0 mm 3 mps 748 mmHg 79%
    19:00 +20°C° 0 mm 2 mps 749 mmHg 84%
    20:00 +20°C° 0 mm 2 mps 749 mmHg 85%
    21:00 +19°C° 0 mm 2 mps 750 mmHg 87%
    22:00 +20°C° 0 mm 1 mps 750 mmHg 88%
    23:00 +20°C° 0 mm 1 mps 750 mmHg 89%

    Tomorrow, 20 August, Tuesday

    Time Temperature Precipitation Wind Pressure Humidity
    00:00 +20°C° 0 mm 1 mps 751 mmHg 90%
    01:00 +18°C° 0 mm 2 mps 751 mmHg 91%
    02:00 +19°C° 0 mm 1 mps 751 mmHg 91%
    03:00 +19°C° 0 mm 1 mps 751 mmHg 91%
    04:00 +19°C° 0 mm 1 mps 752 mmHg 91%
    05:00 +20°C° 0 mm 1 mps 752 mmHg 87%
    06:00 +20°C° 0 mm 1 mps 752 mmHg 82%
    07:00 +21°C° 0 mm 1 mps 752 mmHg 78%
    08:00 +22°C° 0 mm 1 mps 752 mmHg 67%
    09:00 +24°C° 0 mm 2 mps 753 mmHg 56%
    10:00 +25°C° 0 mm 2 mps 753 mmHg 46%
    11:00 +26°C° 0 mm 2 mps 753 mmHg 43%
    12:00 +27°C° 0 mm 2 mps 752 mmHg 41%
    13:00 +27°C° 0 mm 2 mps 752 mmHg 38%
    14:00 +27°C° 0 mm 2 mps 752 mmHg 39%
    15:00 +27°C° 0 mm 2 mps 752 mmHg 39%
    16:00 +27°C° 0 mm 2 mps 752 mmHg 40%
    17:00 +26°C° 0 mm 3 mps 751 mmHg 43%
    18:00 +25°C° 0 mm 3 mps 751 mmHg 46%
    19:00 +24°C° 0 mm 3 mps 751 mmHg 48%
    20:00 +22°C° 0.1 mm 3 mps 751 mmHg 50%
    21:00 +22°C° 0.1 mm 3 mps 751 mmHg 52%
    22:00 +21°C° 0.1 mm 4 mps 751 mmHg 54%
    23:00 +20°C° 1.6 mm 4 mps 751 mmHg 65%

    Day after tomorrow, 21 August, Wednesday

    Time Temperature Precipitation Wind Pressure Humidity
    00:00 +19°C° 1.6 mm 4 mps 750 mmHg 76%
    01:00 +18°C° 1.6 mm 4 mps 750 mmHg 86%
    02:00 +18°C° 0.4 mm 4 mps 750 mmHg 89%
    03:00 +18°C° 0.4 mm 4 mps 750 mmHg 91%
    04:00 +18°C° 0.4 mm 4 mps 750 mmHg 93%
    05:00 +18°C° 0.1 mm 3 mps 751 mmHg 93%
    06:00 +18°C° 0.1 mm 3 mps 751 mmHg 93%
    07:00 +18°C° 0.1 mm 3 mps 751 mmHg 93%
    08:00 +17°C° 0.1 mm 4 mps 752 mmHg 92%
    09:00 +16°C° 0.1 mm 5 mps 752 mmHg 91%
    10:00 +16°C° 0.1 mm 5 mps 753 mmHg 90%
    11:00 +16°C° 0 mm 5 mps 753 mmHg 88%
    12:00 +16°C° 0 mm 6 mps 754 mmHg 87%
    13:00 +16°C° 0 mm 6 mps 754 mmHg 85%
    14:00 +16°C° 0 mm 5 mps 754 mmHg 83%
    15:00 +16°C° 0 mm 5 mps 754 mmHg 81%
    16:00 +16°C° 0 mm 5 mps 755 mmHg 80%
    17:00 +15°C° 0 mm 4 mps 755 mmHg 82%
    18:00 +15°C° 0 mm 4 mps 755 mmHg 84%
    19:00 +14°C° 0 mm 3 mps 755 mmHg 86%
    20:00 +14°C° 0 mm 3 mps 755 mmHg 89%
    21:00 +14°C° 0 mm 2 mps 756 mmHg 91%
    22:00 +13°C° 0 mm 2 mps 756 mmHg 93%
    23:00 +13°C° 0 mm 2 mps 756 mmHg 93%

    22 August, Thursday

    Time Temperature Precipitation Wind Pressure Humidity
    00:00 +13°C° 0 mm 2 mps 756 mmHg 93%
    01:00 +13°C° 0 mm 2 mps 756 mmHg 93%
    02:00 +13°C° 0 mm 2 mps 756 mmHg 93%
    03:00 +12°C° 0 mm 1 mps 756 mmHg 93%
    04:00 +12°C° 0 mm 1 mps 756 mmHg 94%
    05:00 +13°C° 0 mm 1 mps 756 mmHg 90%
    06:00 +14°C° 0 mm 1 mps 757 mmHg 87%
    07:00 +15°C° 0 mm 2 mps 757 mmHg 84%
    08:00 +16°C° 0 mm 2 mps 757 mmHg 78%
    09:00 +18°C° 0 mm 2 mps 757 mmHg 71%
    10:00 +19°C° 0 mm 2 mps 757 mmHg 65%
    11:00 +20°C° 0 mm 2 mps 756 mmHg 61%
    12:00 +21°C° 0 mm 2 mps 756 mmHg 56%
    13:00 +23°C° 0 mm 2 mps 756 mmHg 52%
    14:00 +23°C° 0 mm 2 mps 756 mmHg 51%
    15:00 +23°C° 0 mm 2 mps 756 mmHg 50%
    16:00 +24°C° 0 mm 3 mps 755 mmHg 49%
    17:00 +21°C° 0 mm 2 mps 755 mmHg 54%
    18:00 +20°C° 0 mm 2 mps 755 mmHg 60%
    19:00 +18°C° 0 mm 2 mps 756 mmHg 65%
    20:00 +18°C° 0 mm 2 mps 756 mmHg 67%
    21:00 +17°C° 0 mm 2 mps 756 mmHg 70%
    22:00 +16°C° 0 mm 2 mps 756 mmHg 72%
    23:00 +16°C° 0 mm 2 mps 756 mmHg 75%

    23 August, Friday

    Time Temperature Precipitation Wind Pressure Humidity
    00:00 +15°C° 0 mm 1 mps 756 mmHg 78%
    01:00 +15°C° 0 mm 1 mps 756 mmHg 80%
    02:00 +15°C° 0 mm 1 mps 756 mmHg 82%
    03:00 +14°C° 0 mm 1 mps 756 mmHg 84%
    04:00 +14°C° 0 mm 2 mps 756 mmHg 85%
    05:00 +15°C° 0 mm 2 mps 756 mmHg 82%
    06:00 +16°C° 0 mm 2 mps 756 mmHg 78%
    07:00 +17°C° 0 mm 2 mps 756 mmHg 74%
    08:00 +19°C° 0 mm 2 mps 757 mmHg 68%
    09:00 +21°C° 0 mm 3 mps 757 mmHg 62%
    10:00 +22°C° 0 mm 3 mps 757 mmHg 55%
    11:00 +24°C° 0 mm 3 mps 756 mmHg 52%
    12:00 +25°C° 0 mm 3 mps 756 mmHg 48%
    13:00 +26°C° 0 mm 3 mps 756 mmHg 44%
    14:00 +26°C° 0 mm 3 mps 755 mmHg 44%
    15:00 +26°C° 0 mm 4 mps 755 mmHg 44%
    16:00 +26°C° 0 mm 4 mps 755 mmHg 44%
    17:00 +24°C° 0 mm 3 mps 755 mmHg 50%
    18:00 +22°C° 0 mm 3 mps 755 mmHg 55%
    19:00 +20°C° 0 mm 3 mps 755 mmHg 60%
    20:00 +19°C° 0 mm 3 mps 755 mmHg 63%
    21:00 +18°C° 0 mm 3 mps 755 mmHg 65%
    22:00 +18°C° 0 mm 4 mps 755 mmHg 67%
    23:00 +17°C° 0 mm 3 mps 755 mmHg 69%

    24 August, Saturday

    Time Temperature Precipitation Wind Pressure Humidity
    00:00 +16°C° 0 mm 3 mps 755 mmHg 70%
    01:00 +16°C° 0 mm 3 mps 755 mmHg 72%
    02:00 +14°C° 0 mm 3 mps 754 mmHg 74%
    03:00 +14°C° 0 mm 3 mps 754 mmHg 77%
    04:00 +14°C° 0 mm 3 mps 754 mmHg 79%
    05:00 +15°C° 0 mm 4 mps 754 mmHg 76%
    06:00 +17°C° 0 mm 4 mps 754 mmHg 72%
    07:00 +17°C° 0 mm 5 mps 754 mmHg 69%
    08:00 +20°C° 0 mm 5 mps 753 mmHg 64%
    09:00 +21°C° 0 mm 5 mps 753 mmHg 60%
    10:00 +23°C° 0 mm 6 mps 753 mmHg 55%
    11:00 +24°C° 0 mm 6 mps 753 mmHg 53%
    12:00 +26°C° 0 mm 6 mps 752 mmHg 51%
    13:00 +27°C° 0 mm 6 mps 752 mmHg 49%
    14:00 +27°C° 0 mm 6 mps 751 mmHg 51%
    15:00 +27°C° 0 mm 6 mps 751 mmHg 52%
    16:00 +27°C° 0 mm 6 mps 751 mmHg 54%
    17:00 +26°C° 0 mm 5 mps 750 mmHg 59%
    18:00 +23°C° 0 mm 5 mps 750 mmHg 64%
    19:00 +22°C° 0 mm 4 mps 750 mmHg 70%
    20:00 +21°C° 0 mm 4 mps 750 mmHg 71%
    21:00 +21°C° 0 mm 4 mps 750 mmHg 72%
    22:00 +20°C° 0 mm 5 mps 750 mmHg 74%
    23:00 +20°C° 0 mm 4 mps 749 mmHg 75%
    Show more